Flag for Netherlands Weather past 2 weeks in Kralendijk, Bonaire, Netherlands

Now
81 °F

Warm.


Feels Like: 85 °F
Forecast: 81 / 88 °F
Wind: 18 mph from Northeast

Location: Flamingo Airport - Bonaire

Current Time: Jul 6, 2015 at 6:11:24 AM

Latest Report: Jul 6, 2015 at 5:00 AM


Visibility: N/A

Pressure: 29.92 "Hg

Humidity: 79%

Dew point: 73 °F

Location of KralendijkLocation

Historic Weather in Kralendijk — Graph

°F

Kralendijk temperature yesterday

Maximum temperature yesterday: 88 °F (at 12:00 PM)
Minimum temperature yesterday: 81 °F (at 2:00 AM)
Average temperature yesterday: 84 °F

Past Weeks' High & Low Weather Summary

 TemperatureHumidityPressure
High90 °F (Jul 2, 2:00 PM)84% (Jun 21, 7:00 AM)30.01 "Hg (Jun 21, 7:00 AM)
Low79 °F (Jun 22, 6:00 AM)62% (Jul 2, 3:00 PM)29.83 "Hg (Jul 3, 6:00 PM)
Average83 °F76%29.95 "Hg
* Reported Jun 21 6:00 AM — Jul 6 5:00 AM, Kralendijk, Weather by CustomWeather, © 2015

Note: Actual official high and low records may vary slightly from our data, if they occured in-between our weather recording intervals... More about our weather records

Advertising

Kralendijk weather history for previous 24 hours

 ConditionsComfort  
Time TempWeatherWind HumidityBarometerVisibility
5:00 AM
Mon, Jul 6
81 °FWarm.18 mph79%29.92 "HgN/A
4:00 AM81 °FWarm.17 mph79%29.92 "HgN/A
3:00 AMN/A18 mphN/AN/AN/A
2:00 AM82 °FWarm.21 mph74%29.95 "HgN/A
1:00 AM82 °FWarm.20 mph74%29.95 "HgN/A
12:00 AM82 °FWarm.21 mph74%29.98 "HgN/A
11:00 PM
Sun, Jul 5
82 °FWarm.22 mph74%29.98 "HgN/A
10:00 PM82 °FWarm.20 mph74%29.95 "HgN/A
9:00 PM82 °FPassing clouds.20 mph74%29.95 "HgN/A
8:00 PM82 °FWarm.22 mph74%29.95 "HgN/A
7:00 PM84 °FWarm.22 mph70%29.92 "HgN/A
6:00 PM84 °FScattered clouds.24 mph70%29.89 "HgN/A
5:00 PM86 °FScattered clouds.24 mph66%29.89 "HgN/A
4:00 PM86 °FPassing clouds.24 mph66%29.89 "HgN/A
3:00 PM88 °FPassing clouds.26 mph66%29.92 "HgN/A
1:00 PM88 °FWarm.28 mph66%29.95 "HgN/A
12:00 PM88 °FScattered clouds.23 mph66%29.95 "HgN/A
10:00 AM86 °FScattered clouds.25 mph75%29.98 "HgN/A
9:00 AM86 °FScattered clouds.24 mph70%29.95 "HgN/A
8:00 AM82 °FPartly sunny.20 mph79%29.95 "HgN/A
7:00 AM82 °FWarm.16 mph74%29.95 "HgN/A
6:00 AM81 °FWarm.17 mph79%29.92 "HgN/A
Weather by CustomWeather, © 2015

See weather overviewHow to use our weather pages